[[{"header":{"parameterUnit":"m.s-1","parameterCategory":1,"la1":30.2991,"la2":30.254,"lo1":-89.0895,"lo2":-89.0444,"dy":0.0017,"dx":0.0017,"nx":28,"ny":28,"refTime":"2023-11-14T03:00:00:Z","depth":0,"parameterNumber":2,"parameterNumberName":"U-component_of_WINDS"},"data":[0,0,0,0,0,0,0,0,0,0,0,0,0,0,0,0,0,0,0,0,0,0,0,0,0,0,0,0,0,0,0,0,0,0,0,0,0,0,0,0,0,0,0,0,0,0,0,0,0,0,0,0,0,0,0,0,0,0,-3.9025,-3.9025,0,-3.902,-3.902,-3.9019,-3.8919,-3.8916,-3.8914,-3.8911,-3.8906,-3.8909,-3.8911,0,0,0,0,0,0,0,0,0,0,0,0,0,-3.895,-3.8952,-3.9025,-3.9025,-3.9025,-3.902,-3.902,-3.9019,-3.8919,-3.8916,-3.8913,-3.891,-3.8906,-3.8908,-3.8911,0,0,0,0,0,0,0,0,0,0,0,0,0,-3.8967,-3.8952,-3.9025,-3.8974,-3.897,-3.902,-3.902,-3.9019,-3.892,-3.8916,-3.8912,-3.8908,-3.8905,-3.8908,-3.8911,-3.901,0,0,-3.8922,-3.8923,0,0,0,0,0,0,0,0,-3.8967,-3.897,-3.8982,-3.8978,-3.8973,-3.8966,-3.8991,-3.9016,-3.8921,-3.8939,-3.8911,-3.8907,-3.8929,-3.8931,-3.8938,-3.901,-3.9009,-3.8922,-3.8924,-3.8926,-3.8927,0,0,0,0,0,0,0,-3.8965,-3.897,-3.9023,-3.8982,-3.8977,-3.8952,-3.895,-3.8995,-3.8956,-3.8937,-3.893,-3.893,-3.8926,-3.8935,-3.8937,-3.9009,-3.8922,-3.8925,-3.8927,-3.8929,-3.9161,-3.9165,0,0,0,0,0,0,-3.8971,-3.897,-3.9023,-3.9023,-3.896,-3.8957,-3.8955,-3.8972,-3.8955,-3.8949,-3.8934,-3.8926,-3.8931,-3.8933,-3.8937,-3.9051,-3.8926,-3.8929,-3.8931,-3.9157,-3.9162,-3.9167,0,0,0,0,0,0,-3.897,-3.8977,-3.9023,-3.8994,-3.8998,-3.8962,-3.8983,-3.8974,-3.8983,-3.8953,-3.8945,-3.895,-3.8928,-3.8932,-3.8992,-3.9049,-3.893,-3.8934,-3.9152,-3.9159,-3.9164,-3.928,0,0,0,0,0,0,-3.8968,-3.8977,-3.9014,-3.8996,-3.9,-3.908,-3.8986,-3.8977,-3.8989,-3.8978,-3.8966,-3.896,-3.8925,-3.8988,-3.8996,-3.9052,-3.8936,-3.9147,-3.9155,-3.9163,-3.9271,-3.9289,-3.9305,0,0,0,0,0,-3.8966,-3.9047,-3.9016,-3.9024,-3.9046,-3.9083,-3.9085,-3.9044,-3.8994,-3.9031,-3.9011,-3.896,-3.9042,-3.8995,-3.9003,-3.9061,-3.9143,-3.9153,-3.9162,-3.9263,-3.9286,-3.9305,0,0,0,0,0,0,-3.9074,-3.9044,-3.901,-3.9087,-3.9088,-3.9066,-3.9111,-3.9069,-3.9084,-3.9074,-3.9021,-3.902,-3.9088,-3.908,-3.9029,-3.9155,-3.9084,-3.9095,-3.9158,-3.9179,-3.9196,-3.9196,-3.8939,0,0,0,0,0,-3.9106,-3.9139,-3.9111,-3.9182,-3.9185,-3.9148,-3.9163,-3.913,-3.913,-3.913,-3.9114,-3.9116,-3.9141,-3.916,-3.9182,-3.9269,-3.9265,-3.9313,-3.933,-3.9344,-3.9355,-3.94,-3.9421,-3.9197,-3.9197,-3.9197,0,0,-3.9174,-3.9162,-3.9186,-3.9204,-3.9201,-3.9236,-3.9149,-3.919,-3.9216,-3.9136,-3.9192,-3.9181,-3.9179,-3.9254,-3.9286,-3.9249,-3.9416,-3.9356,-3.9368,-3.937,-3.9412,-3.9433,-3.9452,-3.9204,-3.9202,-3.9201,0,0,-3.9316,-3.931,-3.9369,-3.9368,-3.9364,-3.9339,-3.9353,-3.9337,-3.9327,-3.9382,-3.9323,-3.9353,-3.9398,-3.9399,-3.9406,-3.9548,-3.9502,-3.9556,-3.9646,-3.9691,-3.9709,-3.9724,-3.9775,-3.9794,-3.9567,-3.9567,-3.9567,0,-3.9402,-3.9452,-3.9405,-3.9449,-3.9459,-3.9388,-3.9447,-3.9448,-3.9452,-3.946,-3.9419,-3.9474,-3.9468,-3.9542,-3.9576,-3.9584,-3.9599,-3.9558,-3.971,-3.9725,-3.9738,-3.9786,-3.9806,-3.9574,-3.9573,-3.9572,-3.9572,0,-3.9557,-3.9593,-3.964,-3.9646,-3.966,-3.9712,-3.9673,-3.9694,-3.966,-3.964,-3.9697,-3.9687,-3.9705,-3.972,-3.9688,-3.979,-3.9767,-3.9719,-3.9646,-3.9767,-3.9811,-3.9829,-3.9583,-3.9581,-3.9579,-3.9577,0,0,-3.9767,-3.9745,-3.9764,-3.9765,-3.9756,-3.9782,-3.9831,-3.9848,-3.9867,-3.9873,-3.9912,-3.9952,-3.9907,-3.9914,-3.9881,-3.9921,-4.0034,-3.9868,-3.9867,-3.9899,-4.0146,-4.0183,-4.0205,-4.0004,-4.0007,-4.001,-4.0146,0,-3.9905,-3.9986,-3.9945,-4.0031,-4.0063,-3.9996,-4.0038,-4.0037,-4.0019,-4.0044,-4.0024,-4.0054,-3.9992,-3.9996,-4.0032,-4.0013,-4.0083,-4.0003,-4.004,-4.0042,-4.0043,-4.0228,-4.0267,-4.0396,-4.0163,-4.0166,-4.0168,0,-4.0076,-4.0088,-4.0178,-4.0162,-4.0174,-4.0212,-4.0225,-4.025,-4.0247,-4.0231,-4.024,-4.0197,-4.0244,-4.0171,-4.0235,-4.0181,-4.0194,-4.0187,-4.0191,-4.0193,-4.0113,-4.0235,-4.0437,-4.0456,-4.0195,-4.0193,-4.0191,0,-4.0221,-4.0259,-4.0317,-4.0321,-4.0304,-4.0332,-4.0327,-4.032,-4.0333,-4.0345,-4.0353,-4.037,-4.0379,-4.0393,-4.0356,-4.0307,-4.0425,-4.035,-4.0414,-4.0415,-4.0442,-4.0441,-4.0649,-4.045,-4.045,-4.045,-4.0449,0,-4.0379,-4.0436,-4.0382,-4.0419,-4.0481,-4.0433,-4.0496,-4.0483,-4.0478,-4.0511,-4.0453,-4.0485,-4.0434,-4.0461,-4.0433,-4.049,-4.0495,-4.0483,-4.0475,-4.0489,-4.049,-4.0497,-4.0487,-4.0455,-4.0453,-4.0452,-4.0452,0,-4.0551,-4.0517,-4.0577,-4.0555,-4.0551,-4.0599,-4.058,-4.0613,-4.0591,-4.0633,-4.064,-4.0605,-4.0634,-4.0599,-4.0624,-4.0605,-4.0683,-4.0661,-4.0684,-4.0678,-4.0744,-4.0738,-4.0963,-4.0991,-4.0775,-4.0777,-4.0779,0,-4.0655,-4.0697,-4.068,-4.0698,-4.0695,-4.0724,-4.0737,-4.0691,-4.0707,-4.0707,-4.074,-4.0764,-4.078,-4.0829,-4.0807,-4.0826,-4.0805,-4.0882,-4.0807,-4.082,-4.0806,-4.0804,-4.0808,-4.0898,-4.09,-4.0902,-4.0904,0,-4.0842,-4.0822,-4.0843,-4.0858,-4.0875,-4.0885,-4.089,-4.0908,-4.086,-4.0881,-4.0909,-4.0922,-4.0948,-4.0972,-4.0985,-4.0979,-4.0935,-4.0928,-4.0944,-4.0958,-4.097,-4.0965,-4.0726,-4.0923,-4.0921,-4.092,-4.0919,-4.0918,-4.0983,-4.1017,-4.1011,-4.1036,-4.1035,-4.1041,-4.107,-4.1052,-4.1074,-4.1091,-4.1063,-4.1099,-4.1095,-4.1107,-4.1107,-4.1134,-4.1101,-4.1124,-4.113,-4.1136,-4.1147,-4.0965,-4.1137,-4.1136,-4.1135,-4.1135,-4.1135,0,-4.1167,-4.1159,-4.1182,-4.1191,-4.1211,-4.1166,-4.1169,-4.1189,-4.1221,-4.1221,-4.1238,-4.1271,-4.1294,-4.1273,-4.1292,-4.1318,-4.1298,-4.1325,-4.1323,-4.1322,-4.1175,-4.116,-4.1341,-4.1341,-4.1341,-4.1341,-4.1341,-4.1341,-4.1265,-4.1321,-4.1301,-4.1356,-4.1348,-4.1382,-4.1388,-4.1394,-4.1393,-4.1432,-4.1451,-4.1437,-4.1428,-4.1446,-4.1466,-4.1459,-4.1469,-4.1503,-4.149,-4.1353,-4.1333,-4.1313,-4.1298,-4.1506,-4.1506,-4.1634,-4.1635,-4.1636]},{"header":{"parameterUnit":"m.s-1","parameterCategory":1,"la1":30.2991,"la2":30.254,"lo1":-89.0895,"lo2":-89.0444,"dy":0.0017,"dx":0.0017,"nx":28,"ny":28,"refTime":"2023-11-14T03:00:00:Z","depth":0,"parameterNumber":3,"parameterNumberName":"V-component_of_WINDS"},"data":[0,0,0,0,0,0,0,0,0,0,0,0,0,0,0,0,0,0,0,0,0,0,0,0,0,0,0,0,0,0,0,0,0,0,0,0,0,0,0,0,0,0,0,0,0,0,0,0,0,0,0,0,0,0,0,0,0,0,-4.1643,-4.1643,0,-4.1646,-4.1646,-4.1646,-4.1586,-4.1585,-4.1583,-4.1581,-4.1584,-4.1586,-4.1587,0,0,0,0,0,0,0,0,0,0,0,0,0,-4.1583,-4.1585,-4.1643,-4.1643,-4.1643,-4.1646,-4.1646,-4.1646,-4.1586,-4.1584,-4.1583,-4.1581,-4.1584,-4.1585,-4.1587,0,0,0,0,0,0,0,0,0,0,0,0,0,-4.16,-4.1585,-4.1643,-4.1614,-4.1611,-4.1646,-4.1646,-4.1646,-4.1587,-4.1584,-4.1582,-4.158,-4.1583,-4.1585,-4.1588,-4.1651,0,0,-4.1595,-4.1596,0,0,0,0,0,0,0,0,-4.1599,-4.1603,-4.1618,-4.1616,-4.1613,-4.1613,-4.1626,-4.1648,-4.1587,-4.1596,-4.1581,-4.1579,-4.1596,-4.1597,-4.1603,-4.1651,-4.1651,-4.1595,-4.1597,-4.1598,-4.1598,0,0,0,0,0,0,0,-4.1598,-4.1602,-4.1644,-4.1618,-4.1615,-4.16,-4.16,-4.163,-4.161,-4.1595,-4.1591,-4.1592,-4.1594,-4.1601,-4.1602,-4.1651,-4.1595,-4.1597,-4.1599,-4.16,-4.1751,-4.1754,0,0,0,0,0,0,-4.1601,-4.1602,-4.1644,-4.1644,-4.16,-4.1603,-4.1603,-4.1616,-4.1609,-4.1606,-4.1594,-4.1589,-4.1598,-4.16,-4.1602,-4.1676,-4.1598,-4.16,-4.1601,-4.1748,-4.1752,-4.1754,0,0,0,0,0,0,-4.16,-4.1606,-4.1644,-4.1622,-4.1626,-4.1606,-4.1622,-4.1617,-4.1624,-4.1608,-4.1604,-4.1605,-4.1596,-4.1599,-4.1639,-4.1675,-4.1601,-4.1603,-4.1745,-4.1749,-4.1753,-4.1824,0,0,0,0,0,0,-4.1599,-4.1606,-4.163,-4.1623,-4.1627,-4.1682,-4.1624,-4.1619,-4.1628,-4.1622,-4.1617,-4.1614,-4.1594,-4.1636,-4.1642,-4.1677,-4.1605,-4.1742,-4.1747,-4.1752,-4.1818,-4.183,-4.1839,0,0,0,0,0,-4.1597,-4.165,-4.1632,-4.1637,-4.1657,-4.1684,-4.1686,-4.1662,-4.1631,-4.1655,-4.1645,-4.1614,-4.167,-4.1641,-4.1646,-4.1683,-4.174,-4.1746,-4.1751,-4.1813,-4.1827,-4.1839,0,0,0,0,0,0,-4.1662,-4.1649,-4.1628,-4.168,-4.1684,-4.1674,-4.1703,-4.1678,-4.169,-4.1684,-4.1653,-4.1653,-4.1698,-4.1694,-4.1662,-4.1744,-4.1699,-4.1707,-4.1745,-4.1758,-4.1768,-4.1768,-4.1607,0,0,0,0,0,-4.1682,-4.1706,-4.1692,-4.174,-4.1742,-4.1723,-4.1734,-4.1715,-4.1717,-4.1718,-4.1711,-4.1714,-4.1732,-4.1745,-4.176,-4.1817,-4.1815,-4.1845,-4.1856,-4.1865,-4.1871,-4.1901,-4.1914,-4.1774,-4.1774,-4.1773,0,0,-4.1725,-4.172,-4.1737,-4.1753,-4.1753,-4.1777,-4.1724,-4.1752,-4.177,-4.1722,-4.176,-4.1755,-4.1756,-4.1805,-4.1826,-4.1803,-4.1909,-4.1872,-4.1879,-4.1881,-4.1908,-4.1921,-4.1933,-4.1778,-4.1777,-4.1776,0,0,-4.1815,-4.1814,-4.1853,-4.1854,-4.1855,-4.1842,-4.1851,-4.1845,-4.184,-4.1877,-4.1841,-4.1861,-4.1893,-4.1896,-4.1901,-4.1991,-4.1963,-4.1997,-4.2052,-4.2081,-4.2092,-4.2102,-4.2134,-4.2146,-4.2003,-4.2004,-4.2004,0,-4.1867,-4.1903,-4.1876,-4.1906,-4.1914,-4.1872,-4.1911,-4.1913,-4.192,-4.1926,-4.19,-4.1939,-4.1937,-4.1986,-4.2008,-4.2013,-4.2023,-4.1997,-4.2093,-4.2102,-4.2111,-4.2141,-4.2153,-4.2008,-4.2007,-4.2007,-4.2006,0,-4.1967,-4.1992,-4.2023,-4.2031,-4.2042,-4.2077,-4.2055,-4.2069,-4.2049,-4.2038,-4.2076,-4.2072,-4.2086,-4.2096,-4.2077,-4.2142,-4.2128,-4.2098,-4.2053,-4.2129,-4.2156,-4.2168,-4.2014,-4.2012,-4.2011,-4.201,0,0,-4.2099,-4.209,-4.2102,-4.2104,-4.2102,-4.2121,-4.2153,-4.2167,-4.218,-4.2185,-4.2211,-4.2239,-4.2211,-4.2218,-4.2198,-4.2224,-4.2295,-4.2191,-4.219,-4.221,-4.2366,-4.2388,-4.2402,-4.2276,-4.2278,-4.228,-4.2365,0,-4.2186,-4.2241,-4.2217,-4.2274,-4.2297,-4.2257,-4.2284,-4.2286,-4.2276,-4.2294,-4.2283,-4.2303,-4.2265,-4.2268,-4.2292,-4.2281,-4.2326,-4.2275,-4.23,-4.2301,-4.2301,-4.2416,-4.244,-4.2521,-4.2376,-4.2378,-4.2379,0,-4.2295,-4.2305,-4.2364,-4.2357,-4.2366,-4.2392,-4.2402,-4.2419,-4.242,-4.2411,-4.2418,-4.2392,-4.2423,-4.2378,-4.2419,-4.2385,-4.2394,-4.2391,-4.2393,-4.2395,-4.2345,-4.2421,-4.2547,-4.2559,-4.2396,-4.2395,-4.2393,0,-4.2385,-4.2413,-4.2452,-4.2455,-4.2448,-4.2467,-4.2465,-4.2463,-4.2473,-4.2482,-4.2487,-4.25,-4.2507,-4.2517,-4.2495,-4.2465,-4.254,-4.2493,-4.2533,-4.2534,-4.2551,-4.2551,-4.268,-4.2557,-4.2557,-4.2557,-4.2556,0,-4.2485,-4.2523,-4.2492,-4.2516,-4.2557,-4.2529,-4.2571,-4.2564,-4.2563,-4.2584,-4.255,-4.2571,-4.2541,-4.256,-4.2543,-4.258,-4.2583,-4.2577,-4.2572,-4.258,-4.2581,-4.2585,-4.2579,-4.256,-4.2559,-4.2559,-4.2558,0,-4.2592,-4.2573,-4.2613,-4.2603,-4.2601,-4.2632,-4.2623,-4.2645,-4.2632,-4.266,-4.2665,-4.2646,-4.2665,-4.2645,-4.2663,-4.2652,-4.2701,-4.2688,-4.2701,-4.2698,-4.2739,-4.2735,-4.2876,-4.2893,-4.2759,-4.276,-4.2762,0,-4.2657,-4.2686,-4.2678,-4.269,-4.269,-4.271,-4.272,-4.2693,-4.2704,-4.2706,-4.2728,-4.2744,-4.2756,-4.2789,-4.2777,-4.279,-4.2777,-4.2825,-4.2779,-4.2786,-4.2778,-4.2776,-4.2779,-4.2835,-4.2837,-4.2838,-4.2839,0,-4.2775,-4.2764,-4.2779,-4.2791,-4.2803,-4.2811,-4.2816,-4.2828,-4.28,-4.2814,-4.2834,-4.2843,-4.2861,-4.2878,-4.2887,-4.2885,-4.2858,-4.2854,-4.2864,-4.2872,-4.2879,-4.2876,-4.2727,-4.2851,-4.2849,-4.2849,-4.2848,-4.2847,-4.2863,-4.2886,-4.2884,-4.2902,-4.2903,-4.2908,-4.2928,-4.2918,-4.2934,-4.2946,-4.2929,-4.2953,-4.2952,-4.2963,-4.2963,-4.2981,-4.2961,-4.2975,-4.2979,-4.2983,-4.2989,-4.2876,-4.2983,-4.2983,-4.2982,-4.2982,-4.2982,0,-4.2979,-4.2975,-4.2992,-4.3,-4.3014,-4.2986,-4.299,-4.3004,-4.3025,-4.3027,-4.3039,-4.3061,-4.3077,-4.3065,-4.3079,-4.3095,-4.3083,-4.31,-4.3098,-4.3098,-4.3007,-4.2997,-4.311,-4.3109,-4.3109,-4.3109,-4.3109,-4.3109,-4.3041,-4.3078,-4.3066,-4.3103,-4.3099,-4.3123,-4.3127,-4.3132,-4.3133,-4.3159,-4.3172,-4.3164,-4.3161,-4.3173,-4.3186,-4.3183,-4.3189,-4.321,-4.3202,-4.3117,-4.3105,-4.3093,-4.3083,-4.3212,-4.3212,-4.3292,-4.3293,-4.3293]}]]